Flag for Brazil Weather past 2 weeks in Cuiabá, Mato Grosso, Brazil

Now
75 °F

Clear.


Feels Like: 76 °F
Forecast: 67 / 98 °F
Wind: 5 mph from Northwest

Location: Cuiaba Aeroporto

Current Time: Aug 28, 2015 at 6:11:01 AM

Latest Report: Aug 28, 2015 at 5:00 AM


Visibility: 10 mi

Pressure: 29.95 "Hg

Humidity: 78%

Dew point: 68 °F

Location of CuiabáLocation

Historic Weather in Cuiabá — Graph

°F

Cuiabá temperature yesterday

Maximum temperature yesterday: 93 °F (at 4:00 PM)
Minimum temperature yesterday: 75 °F (at 5:00 PM)
Average temperature yesterday: 83 °F

Past Weeks' High & Low Weather Summary

 TemperatureHumidityPressure
High104 °F (Aug 26, 1:00 PM)89% (Aug 26, 3:00 PM)30.07 "Hg (Aug 26, 3:00 PM)
Low63 °F (Aug 14, 5:00 AM)12% (Aug 13, 3:00 PM)29.74 "Hg (Aug 26, 4:00 PM)
Average83 °F44%29.92 "Hg
* Reported Aug 13 5:00 AM — Aug 28 5:00 AM, Cuiabá, Weather by CustomWeather, © 2015

Note: Actual official high and low records may vary slightly from our data, if they occured in-between our weather recording intervals... More about our weather records

Advertising

Cuiabá weather history for previous 24 hours

 ConditionsComfort  
Time TempWeatherWind HumidityBarometerVisibility
5:00 AM
Fri, Aug 28
75 °FClear.5 mph78%29.95 "Hg10 mi
4:00 AM75 °FClear.3 mph78%29.95 "Hg10 mi
3:00 AM75 °FClear.No wind74%29.95 "Hg10 mi
2:00 AM77 °FClear.3 mph74%29.98 "Hg10 mi
1:00 AM77 °FClear.No wind74%30.01 "Hg10 mi
12:00 AM77 °FPassing clouds.6 mph69%30.04 "HgN/A
11:00 PM
Thu, Aug 27
79 °FPassing clouds.7 mph65%30.07 "HgN/A
10:00 PM79 °FPassing clouds.5 mph61%30.04 "HgN/A
9:00 PM81 °FPassing clouds.3 mph62%30.04 "Hg10 mi
8:00 PM79 °FPassing clouds.6 mph65%30.01 "HgN/A
7:00 PM84 °FClear.8 mph51%29.95 "Hg10 mi
6:00 PM88 °FClear.7 mph43%29.92 "Hg10 mi
5:00 PM75 °FPartly sunny.6 mph89%29.83 "HgN/A
4:00 PM93 °FSunny.10 mph30%29.86 "Hg10 mi
3:00 PM91 °FPassing clouds.6 mph34%29.86 "HgN/A
2:00 PM91 °FSunny.6 mph34%29.92 "Hg10 mi
1:00 PM88 °FPassing clouds.13 mph40%29.95 "HgN/A
12:00 PM91 °FSunny.9 mph34%29.98 "Hg10 mi
11:00 AM88 °FSunny.2 mph35%30.04 "Hg10 mi
10:00 AM84 °FSunny.6 mph48%30.04 "Hg10 mi
9:00 AM79 °FSunny.13 mph65%30.04 "Hg10 mi
8:00 AM81 °FSunny.10 mph62%30.04 "Hg10 mi
7:00 AM82 °FClear.9 mph55%29.98 "Hg5 mi
6:00 AM77 °FSunny.6 mph61%29.86 "Hg10 mi
Weather by CustomWeather, © 2015

See weather overviewHow to use our weather pages